Flag for Germany Weather past 2 weeks in Plettenberg, North Rhine-Westphalia, Germany

61 °F

Passing clouds.

Feels Like: 61 °F
Forecast: 55 / 62 °F
Wind: 5 mph from Southeast

Location: Dortmund / Wickede

Current Time: Oct 6, 2015 at 9:01:47 PM

Latest Report: Oct 6, 2015 at 8:20 PM

Visibility: N/A

Pressure: 29.65 "Hg

Humidity: 88%

Dew point: 57 °F

Location of PlettenbergLocation

Historic Weather in Plettenberg — Graph


Plettenberg temperature yesterday

Maximum temperature yesterday: 66 °F (at 2:50 PM)
Minimum temperature yesterday: 48 °F (at 5:20 AM)
Average temperature yesterday: 58 °F

Past Weeks' High & Low Weather Summary

High68 °F (Oct 3, 2:50 PM)94% (Sep 26, 5:20 AM)30.66 "Hg (Sep 26, 5:20 AM)
Low36 °F (Oct 2, 6:20 AM)39% (Sep 30, 4:20 PM)29.50 "Hg (Sep 22, 4:20 PM)
Average55 °F71%30.15 "Hg
* Reported Sep 21 7:20 PM — Oct 6 7:50 PM, Plettenberg, Weather by CustomWeather, © 2015

Note: Actual official high and low records may vary slightly from our data, if they occured in-between our weather recording intervals... More about our weather records


Plettenberg weather history for previous 24 hours

Time TempWeatherWind HumidityBarometerVisibility
7:50 PM
Tue, Oct 6
61 °FSprinkles. Partly sunny.9 mph88%29.65 "HgN/A
7:20 PM63 °FScattered showers. Partly sunny.7 mph83%29.65 "HgN/A
6:50 PM63 °FSunny.7 mph83%29.62 "Hg10 mi
6:20 PM63 °FSprinkles. Scattered clouds.7 mph83%29.62 "HgN/A
5:50 PM64 °FScattered showers. Scattered clouds.9 mph78%29.62 "Hg6 mi
5:20 PM66 °FScattered clouds.7 mph68%29.62 "HgN/A
4:50 PM68 °FScattered clouds.7 mph64%29.62 "HgN/A
4:20 PM68 °FScattered clouds.10 mph64%29.62 "HgN/A
3:50 PM68 °FScattered clouds.7 mph64%29.62 "HgN/A
3:20 PM66 °FScattered clouds.9 mph68%29.62 "HgN/A
2:50 PM66 °FPartly sunny.9 mph68%29.62 "HgN/A
2:20 PM66 °FScattered clouds.9 mph68%29.62 "HgN/A
1:50 PM66 °FScattered clouds.9 mph68%29.62 "HgN/A
1:20 PM64 °FPartly sunny.9 mph73%29.65 "HgN/A
12:50 PM63 °FPartly sunny.6 mph77%29.65 "HgN/A
12:20 PM61 °FPartly sunny.8 mph83%29.65 "HgN/A
11:50 AM61 °FPartly sunny.10 mph83%29.65 "HgN/A
11:20 AM61 °FOvercast.12 mph77%29.62 "HgN/A
10:50 AM61 °FOvercast.10 mph83%29.62 "HgN/A
10:20 AM59 °FOvercast.9 mph88%29.62 "HgN/A
9:50 AM59 °FOvercast.7 mph82%29.59 "HgN/A
9:20 AM59 °FMore clouds than sun.7 mph82%29.59 "HgN/A
8:50 AM59 °FDrizzle. Overcast.9 mph82%29.59 "HgN/A
8:20 AM59 °FPartly cloudy.9 mph82%29.59 "HgN/A
7:50 AM59 °FPassing clouds.8 mph82%29.59 "HgN/A
7:20 AM57 °FPassing clouds.8 mph88%29.59 "HgN/A
6:50 AM57 °FPassing clouds.10 mph88%29.59 "HgN/A
6:20 AM57 °FPassing clouds.9 mph88%29.59 "Hg4 mi
5:50 AM57 °FLight rain. Passing clouds.7 mph88%29.62 "HgN/A
5:20 AM55 °FPassing clouds.7 mph88%29.62 "HgN/A
10:50 PM
Mon, Oct 5
55 °FClear.6 mph77%29.77 "Hg10 mi
10:20 PM55 °FClear.6 mph72%29.77 "Hg10 mi
9:50 PM55 °FClear.6 mph72%29.77 "Hg10 mi
9:20 PM57 °FClear.3 mph67%29.80 "Hg10 mi
Weather by CustomWeather, © 2015

See weather overviewHow to use our weather pages